BEIDOU-2 G4 (C04)

Last updated on Mon Oct 20 2025 00:03:24 GMT+0000 (Coordinated Universal Time)

1 37210U 10057A 25292.22961214 -.00000112 00000+0 00000+0 0 9996 2 37210 3.0460 70.0953 0009657 177.6854 22.7957 1.00270592 54879
UTC large
Height (km)
Speed (km/s)
/
Latitude / Longitude
Inclination (degrees)
Orbital Period (minutes)
Azimuth
Elevation
Range (km)
Doppler Factor

Next 0 passes for location: London (51.5072 / 0.1276)

Sorry there are no passes over London.